Location: San Antonio
(29.4240°N, 98.4930°W)
Time: 10:05:41
(UTC-05:00)

S-56A Canister/Altair - Visible Passes

Search period start: 19 July 2025 00:00
Search period end: 29 July 2025 00:00
Orbit: 633 x 2485 km, 38.9° (Epoch: 19 July)

Date Brightness Start Highest point End Pass type
(mag) Time Alt. Az. Time Alt. Az. Time Alt. Az.
19 Jul 8.8 00:24:30 10° WNW 00:28:33 48° NW 00:28:33 48° NW visible
19 Jul 9.1 21:47:01 10° WNW 21:51:05 29° N 21:56:04 10° ENE visible
19 Jul 8.5 23:50:12 10° NW 23:55:08 55° N 23:55:08 55° N visible
20 Jul 9.1 21:12:30 10° WNW 21:16:23 27° N 21:20:54 10° ENE visible
20 Jul 8.5 23:15:54 10° NW 23:20:54 48° NNE 23:21:48 45° NE visible
21 Jul 10.4 01:18:53 10° WNW 01:19:01 11° WNW 01:19:01 11° WNW visible
21 Jul 8.6 22:41:36 10° NW 22:46:14 41° NNE 22:48:31 29° ENE visible
22 Jul 9.9 00:44:28 10° WNW 00:45:45 18° WNW 00:45:45 18° WNW visible
22 Jul 8.7 22:07:16 10° NW 22:11:35 35° NNE 22:15:17 17° ENE visible
23 Jul 9.3 00:10:07 10° WNW 00:12:31 30° WNW 00:12:31 30° WNW visible
23 Jul 8.8 21:32:53 10° NW 21:36:56 31° NNE 21:41:45 10° ENE visible
23 Jul 8.4 23:35:47 10° WNW 23:39:20 50° WNW 23:39:20 50° WNW visible
24 Jul 8.8 20:58:26 10° NW 21:02:17 28° N 21:06:37 10° ENE visible
24 Jul 7.6 23:01:27 10° WNW 23:06:11 77° NNE 23:06:11 77° NNE visible
25 Jul 7.7 22:27:07 10° WNW 22:31:44 64° NNE 22:33:05 47° E visible
26 Jul 7.8 21:52:45 10° NW 21:57:11 53° NNE 22:00:01 25° E visible
26 Jul 9.8 23:56:05 10° W 23:57:16 17° W 23:57:16 17° W visible
27 Jul 8.0 21:18:22 10° NW 21:22:38 44° NNE 21:26:59 13° E visible
27 Jul 8.9 23:21:36 10° WNW 23:24:14 30° W 23:24:14 30° W visible
28 Jul 8.2 20:43:55 10° NW 20:48:03 37° NNE 20:52:34 10° E visible
28 Jul 7.9 22:47:08 10° WNW 22:51:14 50° SW 22:51:14 50° SW visible
